Home   Weather   Sedona   Past weeks

Flag for USA Past Weather in Sedona, Arizona, USA — Yesterday and Last 2 Weeks

Now
81 °F

Sunny.


Feels Like: 80 °F
Forecast: 67 / 87 °F
Wind: No wind

Location: Sedona Airport

Current Time: Aug 30, 2016 at 10:15:54 AM

Latest Report: Aug 30, 2016 at 9:35 AM


Visibility: 10 mi

Pressure: 30.22 "Hg (26.12 "Hg at 1282m altitude)

Humidity: 30%

Dew Point: 46 °F

Location of SedonaLocation

Past Weather in Sedona — Graph

°F

Sedona Temperature Yesterday

Maximum temperature yesterday: 88 °F (at 1:15 PM)
Minimum temperature yesterday: 63 °F (at 5:15 AM)
Average temperature yesterday: 75 °F

High & Low Weather Summary for the Past Weeks

 TemperatureHumidityPressure
High97 °F (Aug 16, 1:35 PM)94% (Aug 27, 6:15 AM)30.28 "Hg (Aug 27, 6:15 AM)
Low55 °F (Aug 27, 6:15 AM)14% (Aug 16, 1:35 PM)30.03 "Hg (Aug 20, 3:55 PM)
Average72 °F45%30.16 "Hg
* Reported Aug 15 9:10 AM — Aug 30 9:15 AM, Sedona, Weather by CustomWeather, © 2016

Note: Actual official high and low records may vary slightly from our data, if they occured in-between our weather recording intervals... More about our weather records

Advertising

Sedona Weather History for the Previous 24 Hours

Scroll right to see more
 ConditionsComfort  
Time TempWeatherWind HumidityBarometerVisibility
9:15 AM
Tue, Aug 30
81 °FSunny.No wind30%30.22 "Hg10 mi
8:55 AM79 °FSunny.3 mph32%30.22 "Hg10 mi
8:35 AM79 °FSunny.3 mph32%30.21 "Hg10 mi
8:15 AM75 °FSunny.6 mph34%30.21 "Hg10 mi
7:55 AM73 °FSunny.5 mph36%30.21 "Hg10 mi
7:15 AM70 °FSunny.10 mph40%30.21 "Hg10 mi
6:55 AM72 °FSunny.9 mph36%30.20 "Hg10 mi
6:35 AM70 °FSunny.9 mph38%30.19 "Hg10 mi
6:15 AM68 °FSunny.13 mph40%30.19 "Hg10 mi
5:55 AM68 °FClear.9 mph38%30.18 "Hg10 mi
5:15 AM68 °FClear.3 mph40%30.18 "Hg10 mi
4:55 AM70 °FClear.9 mph38%30.17 "Hg10 mi
4:15 AM72 °FClear.12 mph33%30.17 "Hg10 mi
3:55 AM72 °FClear.9 mph33%30.17 "Hg10 mi
3:35 AM72 °FClear.8 mph33%30.17 "Hg10 mi
3:15 AM72 °FClear.10 mph33%30.17 "Hg10 mi
2:55 AM73 °FClear.12 mph31%30.17 "Hg10 mi
2:35 AM73 °FClear.6 mph33%30.17 "Hg10 mi
2:15 AM73 °FClear.8 mph33%30.17 "Hg10 mi
1:55 AM73 °FClear.13 mph33%30.16 "Hg10 mi
1:15 AM73 °FClear.10 mph33%30.17 "Hg10 mi
12:55 AM72 °FClear.9 mph36%30.17 "Hg10 mi
12:35 AM72 °FClear.14 mph36%30.18 "Hg10 mi
12:15 AM72 °FClear.12 mph36%30.17 "Hg10 mi
11:55 PM
Mon, Aug 29
72 °FClear.13 mph36%30.17 "Hg10 mi
11:15 PM72 °FClear.13 mph36%30.17 "Hg10 mi
10:55 PM72 °FClear.12 mph36%30.17 "Hg10 mi
10:35 PM73 °FClear.12 mph33%30.17 "Hg10 mi
10:15 PM73 °FClear.12 mph33%30.17 "Hg10 mi
9:55 PM73 °FClear.12 mph33%30.17 "Hg10 mi
9:15 PM75 °FClear.9 mph31%30.17 "Hg10 mi
8:55 PM77 °FClear.9 mph30%30.17 "Hg10 mi
8:35 PM77 °FClear.8 mph30%30.16 "Hg10 mi
8:15 PM77 °FClear.7 mph30%30.15 "Hg10 mi
7:55 PM79 °FClear.8 mph28%30.15 "Hg10 mi
7:35 PM79 °FClear.7 mph28%30.14 "Hg10 mi
7:15 PM79 °FClear.7 mph26%30.14 "Hg10 mi
6:55 PM81 °FSunny.7 mph24%30.13 "Hg10 mi
6:15 PM82 °FSunny.7 mph23%30.13 "Hg10 mi
5:55 PM82 °FSunny.15 mph21%30.13 "Hg10 mi
5:15 PM84 °FSunny.8 mph22%30.13 "Hg10 mi
4:55 PM84 °FSunny.13 mph22%30.13 "Hg10 mi
4:35 PM86 °FSunny.7 mph20%30.13 "Hg10 mi
4:15 PM86 °FSunny.15 mph20%30.13 "Hg10 mi
3:50 PM88 °FSunny.16 mph19%30.13 "Hg10 mi
3:15 PM86 °FSunny.8 mph19%30.14 "Hg10 mi
2:55 PM88 °FSunny.14 mph19%30.14 "Hg10 mi
2:15 PM86 °FSunny.9 mph22%30.15 "Hg10 mi
1:55 PM88 °FSunny.8 mph22%30.17 "Hg10 mi
1:15 PM88 °FSunny.7 mph22%30.18 "Hg10 mi
12:55 PM86 °FSunny.13 mph25%30.18 "Hg10 mi
12:15 PM86 °FSunny.7 mph24%30.19 "Hg10 mi
11:55 AM86 °FSunny.12 mph24%30.19 "Hg10 mi
11:15 AM82 °FSunny.6 mph32%30.21 "Hg10 mi
10:55 AM81 °FSunny.7 mph34%30.21 "Hg10 mi
10:35 AM81 °FSunny.5 mph34%30.22 "Hg10 mi
10:15 AM79 °FSunny.No wind34%30.22 "Hg10 mi
Weather by CustomWeather, © 2016

See weather overviewHow to use our weather pages